Mazatlan Airport, Mexico

11:08 AM MDT on September 23, 2017 (GMT -0600)
Gen Rafael Buelna International

Weather History for MMMZ - February, 2014

Change the Weather History Date:

Wednesday, February 12, 2014

  Actual Average Record
Temperature  
Mean Temperature 68 °F -  
Max Temperature 80 °F 78 °F 86 °F (2016)
Min Temperature 57 °F 52 °F 44 °F (2002)
Cooling Degree Days 4    
Growing Degree Days 18 (Base 50)    
Moisture  
Dew Point 57 °F    
Average Humidity 69    
Maximum Humidity 94    
Minimum Humidity 48    
Precipitation  
Precipitation 0.00 in - - ()
Sea Level Pressure  
Sea Level Pressure 29.91 in    
Wind  
Wind Speed 8 mph ()    
Max Wind Speed 14 mph    
Max Gust Speed -    
Visibility 9.0 miles    
Events      
Averages and records for this station are not official NWS values.
T = Trace of Precipitation, MM = Missing Value Source: Averaged Metar Reports

Daily Weather History Graph

Daily Weather History Graph

Search for Another Location

Airport or City:

Trip Planner

Search our weather history database for the weather conditions in past years. The results will help you decide how hot, cold, wet, or windy it might be!

Date:

Astronomy

Feb. 12, 2014 Rise Set
Actual Time 6:39 AM MST 5:59 PM MST
Civil Twilight 6:16 AM MST 6:22 PM MST
Nautical Twilight 5:49 AM MST 6:49 PM MST
Astronomical Twilight 5:23 AM MST 7:15 PM MST
Moon 4:19 PM MST (2/12) 4:52 AM MST (2/12)
Length of Visible Light 12h 06m
Length of Day
11h 20m
Waxing Gibbous, 96% of the Moon is Illuminated
Feb 12
Waxing Gibbous
Feb 14
Full
Feb 22
Last Quarter
Mar 1
New
Mar 8
First Quarter

Hourly Weather History & Observations

Time (MST) Temp. Heat Index Dew Point Humidity Pressure Visibility Wind Dir Wind Speed Gust Speed Precip Events Conditions
12:42 AM 60.8 °F - 53.6 °F 77% 29.96 in 5.0 mi NNE 5.8 mph - N/A   Partly Cloudy
1:48 AM 59.0 °F - 53.6 °F 82% 29.94 in 1.0 mi NNE 8.1 mph - N/A   Clear
3:42 AM 57.2 °F - 53.6 °F 88% 29.93 in 0.6 mi North 10.4 mph - N/A   Partly Cloudy
4:03 AM 59.0 °F - 57.2 °F 94% 29.92 in 1.0 mi North 10.4 mph - N/A   Clear
4:46 AM 59.0 °F - 53.6 °F 82% 29.93 in 6.0 mi North 9.2 mph - N/A   Clear
5:40 AM 59.0 °F - 51.8 °F 77% 29.94 in 8.0 mi NNE 8.1 mph - N/A   Clear
6:46 AM 57.2 °F - 51.8 °F 82% 29.96 in 8.0 mi North 9.2 mph - N/A   Partly Cloudy
7:43 AM 60.8 °F - 53.6 °F 77% 29.98 in 8.0 mi North 8.1 mph - N/A   Scattered Clouds
8:41 AM 66.2 °F - 57.2 °F 73% 29.99 in 10.0 mi North 8.1 mph - N/A   Partly Cloudy
9:48 AM 73.4 °F - 60.8 °F 65% 30.00 in 14.0 mi ENE 11.5 mph - N/A   Partly Cloudy
10:42 AM 77.0 °F - 59.0 °F 54% 29.99 in 12.0 mi SE 8.1 mph - N/A   Partly Cloudy
11:41 AM 80.6 °F 81.1 °F 59.0 °F 48% 29.94 in 14.0 mi SSE 6.9 mph - N/A   Partly Cloudy
12:47 PM 80.6 °F 81.5 °F 60.8 °F 51% 29.90 in 12.0 mi SW 11.5 mph - N/A   Partly Cloudy
1:45 PM 80.6 °F 81.5 °F 60.8 °F 51% 29.87 in 12.0 mi SW 11.5 mph - N/A   Partly Cloudy
2:43 PM 80.6 °F 81.1 °F 59.0 °F 48% 29.85 in 12.0 mi WSW 11.5 mph - N/A   Partly Cloudy
3:46 PM 78.8 °F - 60.8 °F 54% 29.84 in 12.0 mi WSW 13.8 mph - N/A   Partly Cloudy
4:41 PM 75.2 °F - 59.0 °F 57% 29.85 in 12.0 mi West 13.8 mph - N/A   Partly Cloudy
5:40 PM 73.4 °F - 59.0 °F 61% 29.85 in 12.0 mi West 11.5 mph - N/A   Partly Cloudy
6:40 PM 69.8 °F - 57.2 °F 64% 29.86 in 12.0 mi WNW 8.1 mph - N/A   Partly Cloudy
7:40 PM 66.2 °F - 57.2 °F 73% 29.87 in 10.0 mi West 6.9 mph - N/A   Clear
8:42 PM 66.2 °F - 57.2 °F 73% 29.89 in 8.0 mi WSW 9.2 mph - N/A   Clear
9:50 PM 64.4 °F - 55.4 °F 73% 29.89 in 8.0 mi West 8.1 mph - N/A   Clear
10:43 PM 62.6 °F - 53.6 °F 72% 29.90 in 8.0 mi North 6.9 mph - N/A   Clear
11:42 PM 57.2 °F - 51.8 °F 82% 29.90 in 10.0 mi ESE 6.9 mph - N/A   Clear